Location: Gro�bocka
(50.8204°N, 11.9702°E)
Time: 07:08:00
(UTC+00:00)

ATLAS 5 CENTAUR R/B - Pass Details

Date: 29 October 2020
Orbit: 522 x 1136 km, 63.4° (Epoch: 30 November)

Event Time Altitude Azimuth Distance (km) Brightness Sun altitude
Rises 18:10:11 0° 300° (WNW) 2,936 6.1 -22.4°
Reaches altitude 10° 18:12:54 10° 318° (NW) 2,123 4.9 -22.8°
Maximum altitude 18:16:30 20° 6° (N) 1,667 3.7 -23.3°
Enters shadow 18:17:37 19° 23° (NNE) 1,761 3.7 -23.5°
